TimeCST,TemperatureF,Dew PointF,Humidity,Sea Level PressureIn,VisibilityMPH,Wind Direction,Wind SpeedMPH,Gust SpeedMPH,PrecipitationIn,Events,Conditions,WindDirDegrees,DateUTC
12:53 AM,43.0,41.0,93,30.25,4.0,Calm,Calm,-,N/A,,Clear,0,2013-01-20 06:53:00
1:53 AM,42.1,39.9,92,30.26,4.0,Calm,Calm,-,N/A,,Clear,0,2013-01-20 07:53:00
2:53 AM,39.9,39.0,97,30.25,3.0,Calm,Calm,-,N/A,,Clear,0,2013-01-20 08:53:00
3:53 AM,39.0,37.9,96,30.25,3.0,Calm,Calm,-,N/A,,Clear,0,2013-01-20 09:53:00
4:53 AM,39.0,37.9,96,30.24,4.0,Calm,Calm,-,N/A,,Clear,0,2013-01-20 10:53:00
5:53 AM,37.0,36.0,96,30.25,4.0,Calm,Calm,-,N/A,,Clear,0,2013-01-20 11:53:00
6:53 AM,39.0,37.9,96,30.25,4.0,Calm,Calm,-,N/A,,Clear,0,2013-01-20 12:53:00
7:04 AM,37.4,37.4,100,30.25,2.5,Calm,Calm,-,N/A,,Partly Cloudy,0,2013-01-20 13:04:00
7:11 AM,37.4,37.4,100,30.25,4.0,WNW,3.5,-,N/A,,Clear,300,2013-01-20 13:11:00
7:20 AM,37.4,37.4,100,30.25,2.0,Calm,Calm,-,N/A,,Mostly Cloudy,0,2013-01-20 13:20:00
7:35 AM,39.2,39.2,100,30.26,1.5,Calm,Calm,-,N/A,,Overcast,0,2013-01-20 13:35:00
7:48 AM,41.0,39.2,93,30.26,0.8,Calm,Calm,-,N/A,,Mist,0,2013-01-20 13:48:00
7:53 AM,41.0,41.0,100,30.26,0.2,Calm,Calm,-,N/A,Fog,Fog,0,2013-01-20 13:53:00
8:22 AM,44.6,44.6,100,30.27,1.0,Calm,Calm,-,N/A,,Mist,0,2013-01-20 14:22:00
8:30 AM,46.4,44.6,93,30.27,3.0,Calm,Calm,-,N/A,,Mostly Cloudy,0,2013-01-20 14:30:00
8:39 AM,48.2,46.4,93,30.27,4.0,NNW,3.5,-,N/A,,Scattered Clouds,330,2013-01-20 14:39:00
8:53 AM,50.0,48.0,93,30.27,6.0,NNW,3.5,-,N/A,,Clear,330,2013-01-20 14:53:00
9:53 AM,57.0,46.9,69,30.27,10.0,NNW,3.5,-,N/A,,Clear,340,2013-01-20 15:53:00
10:53 AM,62.1,46.0,56,30.25,10.0,NE,4.6,-,N/A,,Partly Cloudy,50,2013-01-20 16:53:00
11:53 AM,62.1,46.9,58,30.22,10.0,Variable,4.6,-,N/A,,Clear,0,2013-01-20 17:53:00
12:53 PM,62.1,48.0,60,30.18,10.0,SSE,6.9,-,N/A,,Clear,150,2013-01-20 18:53:00
1:53 PM,61.0,46.9,60,30.16,10.0,South,8.1,-,N/A,,Clear,180,2013-01-20 19:53:00
2:53 PM,62.1,48.0,60,30.15,10.0,South,5.8,-,N/A,,Clear,180,2013-01-20 20:53:00
3:53 PM,61.0,48.9,64,30.14,10.0,SSE,5.8,-,N/A,,Clear,160,2013-01-20 21:53:00
4:53 PM,59.0,48.0,67,30.14,10.0,Calm,Calm,-,N/A,,Clear,0,2013-01-20 22:53:00
5:53 PM,55.0,48.0,77,30.15,10.0,Calm,Calm,-,N/A,,Clear,0,2013-01-20 23:53:00
6:53 PM,51.1,48.0,89,30.15,8.0,Calm,Calm,-,N/A,,Clear,0,2013-01-21 00:53:00
7:53 PM,48.9,46.0,90,30.17,5.0,Calm,Calm,-,N/A,,Clear,0,2013-01-21 01:53:00
8:53 PM,46.9,45.0,93,30.17,4.0,Calm,Calm,-,N/A,,Clear,0,2013-01-21 02:53:00
9:53 PM,44.1,43.0,96,30.19,2.5,Calm,Calm,-,N/A,,Clear,0,2013-01-21 03:53:00
10:02 PM,44.6,42.8,93,30.19,10.0,Calm,Calm,-,N/A,,Clear,0,2013-01-21 04:02:00
10:53 PM,45.0,43.0,93,30.18,10.0,Calm,Calm,-,N/A,,Clear,0,2013-01-21 04:53:00
11:10 PM,44.6,42.8,93,30.18,2.0,Calm,Calm,-,N/A,,Partly Cloudy,0,2013-01-21 05:10:00
11:26 PM,44.6,42.8,93,30.17,3.0,Calm,Calm,-,N/A,,Partly Cloudy,0,2013-01-21 05:26:00
11:39 PM,44.6,42.8,93,30.17,2.5,Calm,Calm,-,N/A,,Clear,0,2013-01-21 05:39:00
11:49 PM,44.6,42.8,93,30.16,3.0,Calm,Calm,-,N/A,,Clear,0,2013-01-21 05:49:00
11:53 PM,44.1,43.0,96,30.16,4.0,Calm,Calm,-,N/A,,Clear,0,2013-01-21 05:53:00